STARLINK-31976, 59887

Orbit data source: Space-Track

STARLINK-31976, 59887 is a payload satellite owned by SpaceX/Seattle (US) in LEO that was launched on Tue, 28 May 2024 UTC via an FALCON 9 launch vehicle from the Air Force Eastern Test Range (AFETR). Payload-class satellites include a variety of spacecraft equipped with specific instruments for various scientific and technological missions. These include communications satellites like Starlink; space stations such as the ISS; scientific satellites like the Hubble; Earth observation satellites from companies like Planet Labs, Umbra, and HawkEye 360; GPS; miniature CubeSats for education and research; and military/defense satellites.

Loading next visibility...
Identifier
59887, 2024-100C
Orbit
LEO
Country
Flag of USUS
Related business
Manufacturer
SpaceX/Seattle
Mission
Operational Commercial Communications
Bus & Motor
STARLINK V2M, Unknown motor
Mass
730 kg wet, ~700 kg dry
Launch date (UTC)
2024-05-28 (1 year ago)
Launch vehicle
FALCON 9
Launch site
Air Force Eastern Test Range (AFETR)
Object type
Payload
Rocket body
Debris
Shape & HBR
Box + 2 Pan, 17.7 m
Radar Cross Section
33.884 m², Large (>1 m²)

Expand to show TLE details & history
Last TLE update: 19 hours ago

TLE from 19 hours ago
0 STARLINK-31976
1 59887U 24100C   25310.77989395  .00002447  00000-0  98385-4 0  9996
2 59887  43.0032 103.4570 0001268 262.7336  97.3372 15.27594067 82318
Epoch: 2025-11-06T18:43Z
TLE epoch observation values (Epoch: 2025-11-06T18:43:02.837Z)
Latitude
0.00002°
Longitude
136.46189°
Altitude
482.894 km
Speed
7.626 km/s
True Right ascension
06h 53m 49s
True Declination
0° 00' 00"
Sunlit
Object was in full shadow at epoch
Visualization orbit readout
Latitude
Unknown
Longitude
Unknown
Altitude
Unknown
Speed
Unknown
Apparent Right ascension
Unknown
Apparent Declination
Unknown
Sunlit
N/A
Visualization observer readout
Local Sidereal Time
10:07:24
Azimuth
Unknown
Elevation
Unknown
Doppler factor
Unknown
Orbital elements
Apogee altitude
485.822 km
Perigee altitude
484.081 km
Semi-major axis
6,863.089 km
Eccentricity
0.00013
Inclination
43.0032°
RAAN
103.457°
Arg. of periapsis
262.7336°
True anomaly
97.35161°
Mean anomaly
97.3372°
Eccentric anomaly
97.34441°
Mean motion
3.81737 °/min
Orbital period
94.31 mins
BSTAR
0.000098385
Loading maneuver chart data...
Computing Atmospheric mass density...
Loading historical data...
Loading historical data...
Loading historical data...
Loading historical data...
Loading historical data...
Loading historical data...
Loading historical data...

Documentation

Showing up to 5 results
|